Home   Weather   Laguna Niguel   Past weeks
Flag for USA

Past Weather in Laguna Niguel, California, USA — Yesterday and Last 2 Weeks

Now
57 °F

Sunny.


Feels Like: 57 °F
Forecast: 66 / 51 °F
Wind: No wind

Location: John Wayne Airport-Orange County Airport

Current Time: May 24, 2019 at 8:12:36 am

Latest Report: May 24, 2019 at 6:53 am


Visibility: 10 mi

Pressure: 29.98 "Hg

Humidity: 69%

Dew Point: 47 °F

Location of Laguna NiguelLocation

Past Weather in Laguna Niguel — Graph

°F

Laguna Niguel Temperature Yesterday

Maximum temperature yesterday: 65 °F (at 3:53 pm)
Minimum temperature yesterday: 56 °F (at 1:04 am)
Average temperature yesterday: 60 °F

High & Low Weather Summary for the Past Weeks

 TemperatureHumidityPressure
High73 °F (May 11, 12:53 pm)90% (May 16, 9:53 am)30.04 "Hg (May 16, 9:53 am)
Low54 °F (May 19, 6:53 am)42% (May 17, 3:53 pm)29.71 "Hg (May 22, 4:53 am)
Average62 °F69%29.91 "Hg
* Reported May 9 6:04 am — May 24 6:53 am, Laguna Niguel. Weather by CustomWeather, © 2019

Note: Actual official high and low records may vary slightly from our data, if they occured in-between our weather recording intervals... More about our weather records

Advertising

Laguna Niguel Weather History for the Previous 24 Hours

Scroll right to see more
 ConditionsComfort  
Time TempWeatherWind HumidityBarometerVisibility
6:53 am
Fri, May 24
57 °FSunny.No wind69%29.98 "Hg10 mi
5:53 am54 °FSunny.No wind77%29.98 "Hg10 mi
4:53 am55 °FClear.3 mph77%29.98 "Hg10 mi
3:53 am55 °FClear.5 mph74%29.98 "Hg10 mi
2:53 am56 °FClear.No wind75%29.99 "Hg10 mi
1:53 am57 °FClear.No wind74%29.99 "Hg10 mi
12:53 am58 °FClear.No wind75%30.01 "Hg10 mi
11:53 pm
Thu, May 23
61 °FClear.No wind70%30.02 "Hg10 mi
10:53 pm58 °FClear.5 mph78%30.03 "Hg10 mi
9:53 pm59 °FClear.3 mph72%30.02 "Hg10 mi
8:53 pm60 °FClear.6 mph67%30.00 "Hg10 mi
7:53 pm61 °FPassing clouds.8 mph60%30.00 "Hg10 mi
6:53 pm63 °FPassing clouds.6 mph56%29.99 "Hg10 mi
5:53 pm64 °FScattered clouds.7 mph56%29.99 "Hg10 mi
4:53 pm64 °FBroken clouds.7 mph58%30.00 "Hg10 mi
3:53 pm65 °FBroken clouds.8 mph59%30.01 "Hg10 mi
2:53 pm64 °FBroken clouds.9 mph58%30.01 "Hg10 mi
1:53 pm63 °FPartly sunny.14 mph63%30.01 "Hg10 mi
1:11 pm64 °FPartly sunny.16 mph63%30.01 "Hg10 mi
12:53 pm64 °FPartly sunny.14 mph63%30.00 "Hg10 mi
12:00 pm64 °FBroken clouds.12 mph63%29.98 "Hg10 mi
10:53 am62 °FBroken clouds.13 mph65%29.96 "Hg10 mi
9:53 am61 °FBroken clouds.12 mph70%29.94 "Hg10 mi
9:43 am61 °FMore clouds than sun.12 mph72%29.94 "Hg10 mi
8:53 am60 °FMostly cloudy.9 mph72%29.93 "Hg9 mi
Weather by CustomWeather, © 2019

See weather overview